Regional Weather Roundup
Issued by NWS

Home | Current Version | Previous Version | Graphics & Text | Print | Product List | Glossary Off
Versions: 1 2 3 4 5 6 7 8 9 10 11 12 13 14 15 16 17 18 19 20 21 22 23 24 25 26 27 28 29 30 31 32 33 34 35 36 37 38 39 40 41 42 43 44 45 46 47 48 49 50

000
ASUS43 KMKX 301100
RWRWI

WISCONSIN REGIONAL WEATHER ROUNDUP
NATIONAL WEATHER SERVICE MILWAUKEE/SULLIVAN WI
600 AM CDT SUN AUG 30 2015

NOTE: "FAIR" INDICATES FEW OR NO CLOUDS BELOW 12,000 FEET WITH NO
SIGNIFICANT WEATHER AND/OR OBSTRUCTIONS TO VISIBILITY.

WIZ001-002-006>008-014>016-023>028-301200-
NORTHWEST WISCONSIN

CITY           SKY/WX    TMP DP  RH WIND       PRES   REMARKS
SUPERIOR ARPT  CLOUDY    62  62  99 CALM      29.95S
ASHLAND        CLOUDY    64  64 100 S7        29.97F
HAYWARD        CLOUDY    63  61  93 S8        30.01S
SIREN          CLOUDY    64  63  97 SW8       29.99S FOG
CUMBERLAND     CLOUDY    59  59 100 S5        30.01F FOG
RICE LAKE      PTCLDY    58  57  96 CALM      30.03S FOG
CHETEK         CLOUDY   N/A N/A N/A CALM      30.02S
LADYSMITH      CLEAR     58  57  96 CALM      30.05S FOG
EAU CLAIRE     NOT AVBL
MENOMONIE      FOG       56  56  99 SE3       30.03S VSB 1/4
NEW RICHMOND   CLOUDY    60  60  99 S5        30.01S
OSCEOLA        CLOUDY    63  63 100 S7        30.02F FOG
$$

WIZ003>005-009-010-017-018-301200-
NORTH CENTRAL WISCONSIN

CITY           SKY/WX    TMP DP  RH WIND       PRES   REMARKS
MANITOWISH WTR CLOUDY    60  60 100 SW8       30.04S
ARBOR VITAE    CLOUDY    59  58  97 SW3       30.05S FOG
WOODRUFF       CLOUDY    59  58  97 SW3       30.05S FOG
RHINELANDER    FOG       58  57  97 W3        30.06F VSB 3/4
EAGLE RIVER    CLOUDY    59  59 100 SW6       30.05S FOG
LAND O LAKES   CLOUDY    61  60  99 SW3       30.05S FOG
PHILLIPS       CLOUDY    56  56 100 CALM      30.04S FOG
TOMAHAWK       FOG       53  52  97 CALM      30.06S VSB 1/4
MEDFORD        FOG       49  49 100 S3        30.05F VSB<1/4
MERRILL        FOG       51  51 100 CALM      30.07S VSB 1/4
$$

WIZ029-030-035-036-043>047-301200-
CENTRAL WISCONSIN

CITY           SKY/WX    TMP DP  RH WIND       PRES   REMARKS
WAUSAU         FOG       52  51  97 CALM      30.05R VSB 1/2
MOSINEE        FOG       50  50 100 CALM      30.06S VSB 1/4
MARSHFIELD     FOG       54  51  90 CALM      30.06R VSB 1/4
STEVENS POINT  FOG       51  51 100 CALM      30.06S VSB 1/4
WAUPACA        CLEAR     52  51  96 CALM      30.06S FOG
WAUTOMA        PTCLDY    55  55 100 CALM      30.06S FOG
WISC RAPIDS    FOG       54  52  93 CALM      30.07S VSB 1/4
CAMP DOUGLAS   FOG       54  54 100 CALM      30.05S VSB 1/2
$$

WIZ011>013-019>022-031-037>040-048>050-301200-
NORTHEAST WISCONSIN

CITY           SKY/WX    TMP DP  RH WIND       PRES   REMARKS
ANTIGO         FOG       51  51 100 CALM      30.07S VSB 1/4
SHAWANO        FOG       54  53  95 CALM      30.05F VSB 1/4
OCONTO         CLOUDY    52  52 100 CALM      30.05R VSB 1/2
STURGEON BAY   CLOUDY    59  55  88 CALM      30.08R VSB<1/4
GREEN BAY      FOG       57  56  96 CALM      30.06R VSB 1/4
MANITOWOC      FOG       54  52  94 MISG      30.06S VSB 1/2
APPLETON       MOCLDY    57  57 100 VRB5      30.04S FOG
CLINTONVILLE   FOG       50  50 100 CALM      30.05F VSB 1/4
OSHKOSH        FOG       56  55  97 CALM      30.06R VSB 3/4
$$

WIZ032>034-041-042-053>061-301200-
SOUTHWEST WISCONSIN

CITY           SKY/WX    TMP DP  RH WIND       PRES   REMARKS
LA CROSSE      FOG       59  58  96 SE5       30.04S VSB 1/4
SPARTA         CLEAR     54  53  97 CALM      30.06S
VIROQUA        CLEAR     58  58 100 SE3       30.06S
BOSCOBEL       FOG       61  60  97 CALM      30.06R VSB 1/4
PRAIRIE DU CHI FOG       59  57  95 CALM      30.05R VSB 1/4
PLATTEVILLE    CLEAR     61  59  92 E5        30.06S
$$

WIZ056-057-062-063-064-067-068-301200-
SOUTH CENTRAL WISCONSIN

CITY           SKY/WX    TMP DP  RH WIND       PRES   REMARKS
REEDSBURG      CLOUDY    58  58 100 CALM      30.05F
BARABOO/DELLS  CLOUDY    60  59  95 CALM      30.06S FOG
LONE ROCK      CLOUDY    63  61  93 CALM      30.06S FOG
MINERAL POINT  CLOUDY    64  59  82 CALM      30.07R
MADISON        CLOUDY    62  60  93 CALM      30.05S FOG
MIDDLETON      CLOUDY    64  64  99 CALM      30.06S
WATERTOWN      CLOUDY    62  62 100 CALM      30.05S FOG
MONROE         CLOUDY    64  59  82 CALM      30.06S
JANESVILLE     CLOUDY    64  63  94 CALM      30.05S FOG
$$

WIZ051-052-058>065-066-070>072-301200-
SOUTHEAST WISCONSIN

CITY           SKY/WX    TMP DP  RH WIND       PRES   REMARKS
MILWAUKEE      FOG       63  62  97 NW5       30.05R VSB 1/4
WAUKESHA       FOG       61  61 100 CALM      30.06S VSB 1
MILWAUKEE/TIMM FOG       61  59  94 NW3       30.06R VSB 1/2
RACINE         FOG       63  61  93 N6        30.06S VSB 1/4
BURLINGTON     CLOUDY    60  60  99 N3        30.05S FOG
KENOSHA        CLOUDY    63  62  97 NW3       30.05S FOG
FOND DU LAC    FOG       61  59  93 CALM      30.07R VSB 1/4
SHEBOYGAN      FOG       53  53 100 CALM      30.06R VSB 1/2
WEST BEND      FOG       57  55  94 CALM      30.05S VSB<1/4
JUNEAU         FOG       57  57  99 CALM      30.07R VSB<1/4
$$

LSZ147-162-301200-
LAKE SUPERIOR

STATION/POSITION TIME  TEMP    WIND        PRES    WAVE
                       AIR SEA DIR/SP/G            HT/PER
                 (UTC) (F)     (DEG/KT/KT) (MB)    (FT/S)
W MID LAKE BUOY  0950   59 54  200/ 14/ 16 1013.8S   1/ 3
DEVILS ISLAND    1000   63     190/  8/ 10 1014.1S
PORT WING        1000   65     200/  6/ 11 1014.6S
SAXON HARBOR     1040   64     200/  2/  8 1014.6R
$$

LMZ867-665-643>646-301200-
LAKE MICHIGAN

STATION/POSITION TIME  TEMP    WIND        PRES    WAVE
                       AIR SEA DIR/SP/G            HT/PER
                 (UTC) (F)     (DEG/KT/KT) (MB)    (FT/S)
CHAMBERS ISLAND  1000   59     200/  1/  4 1017.3S
S GREEN BAY BUOY 1000   61 62  240/  6/  8 1018.7S
N MID LAKE BUOY  0950   63 64  240/  6/  6 1017.0R   0
NORTHPORT PIER   1003   60     250/  2/  6 1016.9S
SISTER BAY       1004   61        CALM       N/A
ALGOMA LAKESHORE 1044             CALM       N/A
SHEBOYGAN LAKESH 1000   54      10/  2/  2 1017.8R
PORT WASHINGTON  1040   61      CALM  /  3 1018.3R
ATWATER BUOY     1000   54 49  350/  4/  4 1018.6R
MILWAUKEE LAKESH 1000   61     350/  3/  3   N/A
S MID LAKE BUOY  0950   67 68  360/ 10/ 12 1015.9R
KENOSHA   LAKESH 1000   63     340/  6/  7 1017.3R
$$

TC  - TEMPERATURE IN CELSIUS
VSB - VISIBILITY IN STATUTE MILES
WCI - WIND CHILL INDEX
HX  - HEAT INDEX




USA.gov is the U.S. government's official web portal to all federal, state and local government web resources and services.